Regional Weather Roundup
Issued by NWS State College, PA

Home | Current Version | Previous Version | Text Only | Print | Product List | Glossary Off
Versions: 1 2 3 4 5 6 7 8 9 10 11 12 13 14 15 16 17 18 19 20 21 22 23 24 25 26 27 28 29 30 31 32 33 34 35 36 37 38 39 40 41 42 43 44 45 46 47 48 49 50

391
ASUS41 KCTP 201910
RWRCTP

REGIONAL WEATHER ROUNDUP
NATIONAL WEATHER SERVICE STATE COLLEGE PA
200 PM EST FRI JAN 20 2017

Note: "fair" indicates few or no clouds below 12,000 feet with no
significant weather and/or obstructions to visibility.

* = STATION THAT DOES NOT REPORT PRECIPITATION /E.G. RAIN...SNOW...ETC/
    THUNDER OR FOG.

PAZ002>004-007>009-013>016-020>023-029>032-202000-
WESTERN PENNSYLVANIA

CITY           SKY/WX    TMP DP  RH WIND       PRES   REMARKS
ERIE           LGT RAIN  47  43  86 S9        29.68R
MEADVILLE      LGT RAIN  45  42  89 S6        29.68S FOG
FRANKLIN*        N/A     43  39  87 S9        29.70F
NEW CASTLE     CLOUDY    49  48  97 S3        29.70S
BEAVER COUNTY  CLOUDY    50  50 100 SW10      29.70S
BUTLER*        CLOUDY    48  46  93 S6        29.74R
PITTSBURGH INT CLOUDY    54  52  93 SW9       29.70S
PITTSBURGH     CLOUDY    55  49  80 SW10      29.71S
INDIANA*       CLOUDY    48  48 100 CALM      29.75S
LATROBE        CLOUDY    54  54 100 SW14      29.73F
WASHINGTON CO* NOT AVBL
$$

PAZ004>006-010>012-017>019-024>028-033>037-041-042-045-046-049>053-202000-
CENTRAL PENNSYLVANIA

CITY           SKY/WX    TMP DP  RH WIND       PRES   REMARKS
BRADFORD       LGT RAIN  38  38 100 S8        29.70F
DUBOIS         FOG       40  37  89 SE7       29.72R VSB 3/4
CLEARFIELD     FOG       37  37 100 N6        29.76F VSB 3/4
JOHNSTOWN      LGT RAIN  44  44 100 S7        29.73S FOG
ALTOONA        CLOUDY    43  40  89 S7        29.78F
STATE COLLEGE  CLOUDY    37  36  93 CALM      29.79F FOG
WILLIAMSPORT   LGT RAIN  39  36  89 NE14      29.84F
SELINSGROVE    LGT RAIN  36  35  96 NW3       29.86F FOG
FT INDIANTOWN  LGT RAIN  36  36 100 NE6       29.88F FOG
CAPITAL CITY   LGT RAIN  40  37  89 E8        29.87F FOG
HARRISBURG     LGT RAIN  40  40 100 SE7       29.87F FOG
YORK           CLOUDY    41  41 100 E6        29.86F FOG
$$

PAZ038>040-043-044-047-048-054-055-060>062-067>071-202000-
EASTERN PENNSYLVANIA

CITY           SKY/WX    TMP DP  RH WIND       PRES   REMARKS
SCRANTON       RAIN      39  37  92 CALM      29.86F FOG
MOUNT POCONO   LGT RAIN  33  31  92 SE7       29.85S
ALLENTOWN      RAIN      40  35  83 SE3       29.92F
QUAKERTOWN*    CLOUDY    37  37 100 CALM      29.92F
READING        LGT RAIN  38  38 100 E3        29.91F FOG
LANCASTER      LGT RAIN  40  40 100 E8        29.89F FOG
COATESVILLE    CLOUDY    37  37 100 E5        29.92S FOG
POTTSTOWN      LGT RAIN  37  37 100 CALM      29.94S FOG
BLUE BELL      CLOUDY    37  36  93 CALM      29.93R
DOYLESTOWN     LGT RAIN  40  37  89 CALM      29.92F
WILLOW GROVE   NOT AVBL
NORTH PHILA    LGT RAIN  41  37  86 CALM      29.95F
PHILADELPHIA   LGT RAIN  40  37  89 CALM      29.94F FOG
$$




USA.gov is the U.S. government's official web portal to all federal, state and local government web resources and services.